sat.trackr.live / text

‹ back to catalog

KUIPER-00081

NORAD 65132 · 2025-171A

PAYLOAD ACTIVE UNKNOWN

§ Identity

Operator
Country
US
Launch date
2025-08-11
Launch site
AFETR
Launch vehicle
Mass (kg)
RCS (m²)

External: N2YO · Heavens-Above · Gunter

§ Orbital elements

Epoch: 2026-09-21T10:09:43.386048Z

Period
97.30 min
Inclination
51.9019°
Eccentricity
0.0000355
Mean motion
14.79939688 rev/d
Perigee alt
629.3 km
Apogee alt
629.8 km
Semi-major
7,007.7 km
B*
3.2213e-4
RAAN
2.5379°
Arg perigee
95.9139°
Mean anomaly
264.1864°
Rev number
6,202

§ Raw data

KUIPER-000811 65132U 25171A   26264.42341882  .00002236  00000+0  32213-3 0  99912 65132  51.9019   2.5379 0000355  95.9139 264.1864 14.79939688 62024

JSON: /api/v1/satellites/65132 · /tle

For live sub-satellite position, see the globe view (requires WebGL).

§ Visibility from observer

Set your observer location to see the next 7 days of passes ≥ 10°. The values pass through the URL so the page stays shareable.

No JS? Fill the form by hand. The geolocation button needs JavaScript.